Regional Weather Roundup
Issued by NWS

Home | Current Version | Previous Version | Text Only | Print | Product List | Glossary On
Versions: 1 2 3 4 5 6 7 8 9 10 11 12 13 14 15 16 17 18 19 20 21 22 23 24 25 26 27 28 29 30 31 32 33 34 35 36 37 38 39 40 41 42 43 44 45 46 47 48 49 50
000
ASUS45 KTFX 230510
RWRMT
MONTANA REGIONAL WEATHER ROUNDUP
NATIONAL WEATHER SERVICE GREAT FALLS MT
1000 PM MST THU FEB 22 2018

NOTE: "FAIR" INDICATES FEW OR NO CLOUDS BELOW 12000 FEET WITH NO
SIGNIFICANT WEATHER AND/OR OBSTRUCTIONS TO VISIBILITY.

MTZ001>007-043-230600-
WEST OF THE DIVIDE

CITY           SKY/WX    TMP DP  RH WIND       PRES   REMARKS
KALISPELL      FAIR      12   3  67 NW3       30.15R
MISSOULA       FAIR      16   6  65 NW9       30.12R WCI   4
BUTTE          CLOUDY    12   7  80 N3        29.95S
MULLAN PASS    CLOUDY     6   4  91 N3        29.95R
ANACONDA         N/A      9   1  72 CALM      30.01S
DEER LODGE       N/A      7   0  72 W7        30.03S WCI  -5
HAMILTON         N/A     19  10  68 MISG      30.06S
PLAINS           N/A      7  -2  66 CALM      30.18R
RONAN            N/A     -6  -9  84 NE6       30.17R WCI -18
$$

MTZ008-052>055-230600-
SOUTHWEST MONTANA

CITY           SKY/WX    TMP DP  RH WIND       PRES   REMARKS
BOZEMAN        FAIR       6   1  80 W5        30.06R
DILLON         CLOUDY     6   6 100 NE13      29.95R FOG     WCI -10
ENNIS          CLOUDY     7   3  85 S7        30.01S WCI  -5
W YELLOWSTONE  CLOUDY     0  -4  85 CALM      29.89R
THREE FORKS      N/A      6  -1  73 CALM      30.04S
$$

MTZ009-010-012-014-046-048-049-054-230600-
EAST SLOPES AND CENTRAL MONTANA

CITY           SKY/WX    TMP DP  RH WIND       PRES   REMARKS
CUT BANK       FAIR      -2  -5  87 CALM      30.13S
GREAT FALLS    FAIR      -2  -7  79 SW8       30.16S WCI -17
MALMSTROM AFB  CLEAR     -3  -5  89 S2        30.19S
HELENA         FAIR       7  -2  66 W8        30.12S WCI  -6
AUGUSTA        FAIR     -10 -14  80 NW3       30.09F
CHOTEAU          N/A      1  -2  85 SW6       30.15S WCI -10
CONRAD           N/A     -6 -11  79 CALM      30.16S
RAYNESFORD     MOCLDY    -1  -6  78 E5        30.14S
WHITE SULPHUR    N/A     -6  -9  84 SE3       30.03S
$$

MTZ011-013-016-021-045-047-050-051-230600-
NORTH CENTRAL MONTANA

CITY           SKY/WX    TMP DP  RH WIND       PRES   REMARKS
HAVRE          FAIR      -5 -10  79 W6        30.25S WCI -18
LEWISTOWN      FAIR      -4  -8  83 SE5       30.13S
N BAR RANCH    FAIR       3  -8  60 CALM      30.13R
CHINOOK          N/A    -11 -17  77 CALM      30.28S
GEYSER         MOCLDY     1  -5  76 SW12      30.13S WCI -16
STANFORD       FAIR       1  -5  74 CALM      30.10S
$$

MTZ017>020-022>027-061-062-230600-
NORTHEAST MONTANA

CITY           SKY/WX    TMP DP  RH WIND       PRES   REMARKS
GLASGOW        FAIR     -11 -17  75 SW6       30.27R WCI -25
GLENDIVE       FAIR      -3 -10  72 W5        30.22F
JORDAN           N/A    -15 -21  74 W7        30.24R WCI -31
MALTA          MOCLDY   -15 -20  76 SW6       30.27S WCI -29
SIDNEY         FAIR     -11 -16  78 SE5       30.26F
WOLF POINT     FAIR      -9 -16  71 SW7       30.30S WCI -24
PLENTYWOOD       N/A      0  -6  78 CALM      30.22S
POPLAR           N/A    -11 -17  77 W3        30.30S
SCOBEY           N/A     -5 -14  65 CALM      30.18
$$

MTZ028>42-056>058-230600-
SOUTHCENTRAL AND SOUTHEAST MONTANA

CITY           SKY/WX    TMP DP  RH WIND       PRES   REMARKS
BAKER          FAIR      -3  -6  87 MISG      30.17S
BILLINGS       MOCLDY     4  -3  73 N7        30.17R WCI  -8
LIVINGSTON     FAIR       6  -2  69 E3        30.07R
MILES CITY     FAIR      -9 -12  87 W15       30.23R WCI -31
BIG TIMBER     PTCLDY     3  -4  72 NE9       30.12S WCI -11
EKALAKA          N/A      2  -9  60 CALM      30.08
FORSYTH          N/A     -2  -8  78 W5        30.23F
LAUREL           N/A      7  -2  66 N9        30.19R WCI  -7
$$

REGIONAL REPORTS...DAKOTAS

CITY           SKY/WX    TMP DP  RH WIND       PRES   REMARKS
WILLISTON      FAIR      -6 -11  79 SW5       30.24F
MINOT          FAIR       6  -1  73 W7        30.21S WCI  -6
DICKINSON      FAIR       0  -5  79 NW10      30.14S WCI -16
BEACH          FAIR      -2  -8  78 W3        30.21S
CROSBY         FAIR      -8 -13  77 W8        30.23F WCI -23
TIOGA          FAIR      -8 -11  84 W5        30.21S
WATFORD CITY   FAIR      -6  -9  84 SW5       30.23S
BISMARCK       CLOUDY    17  10  74 W6        30.20F WCI   9
GRAND FORKS    CLOUDY    20  15  81 CALM      30.25F
FARGO          LGT SNOW  22  20  92 MISG      30.21F FOG
BUFFALO SD       N/A      3  -3  76 NW14      30.04F WCI -15
RAPID CITY     FAIR       5   0  79 W9        30.09S WCI  -9
$$

REGIONAL REPORTS...WYOMING/IDAHO/WASHINGTON

CITY           SKY/WX    TMP DP  RH WIND       PRES   REMARKS
GILLETTE       FAIR       5  -2  72 CALM      30.06F
SHERIDAN       FAIR       4  -4  69 CALM      30.11S
BUFFALO WY     FAIR       8  -6  52 NW5       30.04S
CODY           FAIR       2  -3  80 CALM      30.05R
YELLOWSTONE LA   N/A     -7 -11  83 CALM      29.89R
IDAHO FALLS    MOCLDY    24  17  74 S12       29.97R WCI  13
SALMON         CLOUDY    25  20  81 NE6       29.96R WCI  18
BOISE          FAIR      20  12  71 CALM      30.09R
SPOKANE        FAIR      14   8  77 W6        30.20R WCI   5
$$

REGIONAL REPORTS...ALBERTA

CITY           SKY/WX    TMP DP  RH WIND       PRES   REMARKS
CALGARY        CLEAR      7   3  85 S8        30.05F WCI  -6
CARDSTON         N/A      0  -6  78 SW7         N/A  WCI -13
EDMONTON       CLEAR     14   7  73 SW8       30.05F WCI   3
FORT MCMURRAY  PTCLDY    16   7  67 S10       29.96F WCI   3
HIGH LEVEL     CLEAR     16   5  62 CALM      29.74F
LETHBRIDGE     PTCLDY     1  -4  78 S17       30.15F WCI -19
LLOYDMINSTER   PTCLDY     7   5  92 W10       30.10F WCI  -8
MEDICINE HAT   CLEAR      3  -2  78 SW5       30.22F
PEACE RIVER    PTCLDY     9   3  78 SW8       29.85F WCI  -4
PINCHER CREEK  CLEAR     -4  -8  84 W12       30.09F WCI -22
WATERTON GATE    N/A      3  -4  72 S9          N/A  WCI -11
$$

REGIONAL REPORTS...SASKATCHEWAN

CITY           SKY/WX    TMP DP  RH WIND       PRES   REMARKS
CORONACH         N/A    -11 -15  84 CALM        N/A
CYPRESS HILLS    N/A      7   3  85 NW5         N/A
ESTEVAN        PTCLDY    -8 -11  84 W9        30.21F WCI -25
MOOSE JAW        N/A      3   0  85 W12         N/A  WCI -13
PRINCE ALBERT  PTCLDY    -2  -6  84 SW2       30.20R
REGINA         FLURRIES   9   5  85 W7        30.22R WCI  -3
ROCKGLEN         N/A      5   1  85 W3          N/A
SASKATOON      CLEAR     -2  -6  84 SW5       30.20S
SWIFT CURRENT  CLEAR      5   1  85 W13       30.16S WCI -12
VAL MARIE        N/A     -9 -15  77 S5          N/A
$$



USA.gov is the U.S. government's official web portal to all federal, state and local government web resources and services.